Location: Aulnoy
(48.8410°N, 3.0967°E)
Time: 10:10:25
(UTC+00:00)

BREEZE-M DEB (TANK) - Visible Passes

Search period start: 28 September 2023 00:00
Search period end: 08 October 2023 00:00
Orbit: 756 x 22172 km, 51.3° (Epoch: 27 September)

Date Brightness Start Highest point End Pass type
(mag) Time Alt. Az. Time Alt. Az. Time Alt. Az.
28 Sep 5.4 03:41:47 10° WNW 04:22:38 70° SW 04:29:55 10° SE visible
28 Sep 7.4 20:16:30 10° SSW 23:48:02 90° NNW 00:07:24 10° ENE visible
29 Sep 8.0 16:19:23 10° SE 18:58:15 46° ESE 19:40:43 10° ENE visible
30 Sep 6.2 00:34:20 10° W 02:23:45 86° NNE 02:34:05 10° ESE visible
30 Sep 7.7 18:08:30 10° S 21:39:46 75° SE 22:09:59 10° ENE visible
01 Oct 5.3 04:21:58 10° WNW 04:52:11 53° SW 04:58:56 10° SSE visible
01 Oct 7.1 20:59:03 10° SW 00:21:07 86° NNW 00:37:22 10° E visible
02 Oct 7.9 16:29:47 10° SSE 19:30:40 55° ESE 20:11:38 10° ENE visible
03 Oct 5.8 01:41:53 10° W 02:54:47 87° SSW 03:03:43 10° ESE visible
03 Oct 7.6 18:36:07 10° S 22:14:09 82° SSE 22:40:08 10° ENE visible
04 Oct 5.6 04:59:04 10° NW 05:21:03 36° WSW 05:27:27 10° S visible
04 Oct 8.2 15:21:33 10° SE 17:27:19 34° E 18:10:54 10° NE visible
04 Oct 6.7 21:52:50 10° SW 00:53:38 84° N 01:07:16 10° E visible
05 Oct 7.8 16:45:44 10° SSE 20:04:14 64° SE 20:42:13 10° ENE visible
06 Oct 5.5 02:34:09 10° WNW 03:25:12 75° SW 03:33:08 10° SE visible
06 Oct 7.4 19:08:34 10° SSW 22:48:15 89° SSE 23:10:13 10° ENE visible
07 Oct 5.9 05:34:50 10° WNW 05:49:17 23° W 05:55:09 10° SSW visible
07 Oct 8.0 15:24:19 10° SE 17:57:49 43° ESE 18:42:44 10° NE visible
